Terminal Aerodrome Forecast
Issued by NWS

Home | Current Version | Previous Version | Text Only | Print | Product List | Glossary On
Versions: 1 2 3 4 5 6 7 8 9 10 11 12 13 14 15
000
FTUS45 KBOI 242324
TAFBKE
TAF
KBKE 242324Z 2500/2524 32015G25KT P6SM SKC
     FM250400 31007KT P6SM BKN150
     FM251800 32006KT P6SM VCSH OVC100=

USA.gov is the U.S. government's official web portal to all federal, state and local government web resources and services.